Regional Weather Roundup
Issued by NWS

Home | Current Version | Previous Version | Text Only | Print | Product List | Glossary On
Versions: 1 2 3 4 5 6 7 8 9 10 11 12 13 14 15 16 17 18 19 20 21 22 23 24 25 26 27 28 29 30 31 32 33 34 35 36 37 38 39 40 41 42 43 44 45 46 47 48 49 50
000
ASUS44 KFWD 101710
RWRTX
NORTH TEXAS HOURLY WEATHER ROUNDUP
NATIONAL WEATHER SERVICE FORT WORTH TX
1200 PM CDT THU JUL 10 2014

NOTE: "FAIR" INDICATES FEW OR NO CLOUDS BELOW 12,000 FEET WITH NO
SIGNIFICANT WEATHER AND/OR OBSTRUCTIONS TO VISIBILITY.

TXZ118-119-101800-
DALLAS/FORT WORTH METROPLEX

CITY           SKY/WX    TMP DP  RH WIND       PRES   REMARKS
DFW AIRPORT    MOSUNNY   92  65  40 SW12      30.04F HX  94
DALLAS LOVE    MOSUNNY   91  65  41 SW12G17   30.05F HX  93
FTW MEACHAM    SUNNY     92  68  45 S10       30.04S HX  96
DAL-EXECUTIVE  SUNNY     91  64  40 VRB7G16   30.05F HX  92
FTW-ALLIANCE   MOSUNNY   90  66  45 VRB6      30.04S HX  92
FTW-NAS-JRB    MOSUNNY   92  65  40 S16       30.09R HX  94
FTW-SPINKS     SUNNY     91  66  43 S13G20    30.07S HX  94
ARLINGTON      SUNNY     91  62  37 S10G21    30.05F HX  91
GRAND PRAIRIE  SUNNY     90  63  40 MISG      30.07S HX  90
ADDISON        MOSUNNY   90  63  40 S10G20    30.06S HX  90
MESQUITE       SUNNY     90  66  45 SE12      30.06F HX  92
LANCASTER      SUNNY     89  62  39 SW10G16   30.07S
$$

TXZ091>094-102>105-117-120-121-131>134-101800-
NORTH CENTRAL TEXAS

CITY           SKY/WX    TMP DP  RH WIND       PRES   REMARKS
SHRMAN/DENISON MOSUNNY   91  66  44 S9        30.05S HX  93
GAINESVILLE    SUNNY     92  65  41 S12G17    30.06R HX  94
BOWIE          SUNNY     90  67  46 S9        30.04F HX  92
BRIDGEPORT     SUNNY     90  62  39 S12       30.06S HX  90
DECATUR        SUNNY     90  63  39 S10G20    30.06S HX  91
DENTON         SUNNY     90  66  45 SW13      30.05R HX  92
MCKINNEY       SUNNY     92  64  39 S12       30.05S HX  93
GREENVILLE     SUNNY     90  63  40 SW12      30.07F HX  90
ROCKWALL       SUNNY     89  69  51 S12       30.06F HX  92
TERRELL        SUNNY     92  64  39 S12       30.07F HX  93
WAXAHACHIE     SUNNY     89  60  38 S12G18    30.08F
CLEBURNE       SUNNY     90  68  48 S12G18    30.08F HX  93
GRANBURY       SUNNY     92  63  37 S12G18    30.06F HX  92
$$

TXZ083>090-098>101-113>116-127>130-139>142-154-155-101800-
WESTERN NORTH TEXAS

CITY           SKY/WX    TMP DP  RH WIND       PRES   REMARKS
WICHITA FALLS  MOSUNNY   91  66  43 S9G18     30.01R HX  93
WF-KICKAPOO    SUNNY     91  61  36 SW10G22   30.03S HX  91
VERNON         SUNNY     94  60  32 S13       30.02S HX  93
ABILENE        SUNNY     89  57  33 S13G24    30.08F
ABILENE-DYESS  SUNNY     90  58  34 S14G23    30.07F
BRECKENRIDGE   SUNNY     93  59  31 S9G17     30.05F HX  92
MINERAL WELLS  SUNNY     91  66  43 S12       30.04F HX  93
STEPHENVILLE   SUNNY     90  57  33 S12G20    30.10F
COMANCHE       SUNNY     90  57  33 S12G21    30.09S
BROWNWOOD      SUNNY     88  59  37 SE10G17   30.09F
COLEMAN        SUNNY     88  57  34 S10G20    30.10F
BRADY          SUNNY     88  57  35 S8        30.10F
$$

TXZ143>147-156>162-174-175-101800-
CENTRAL TEXAS

CITY           SKY/WX    TMP DP  RH WIND       PRES   REMARKS
WACO           SUNNY     90  65  43 S14       30.07F HX  92
WACO-TSTC      SUNNY     90  64  43 S13       30.08S HX  91
WACO-MCGREGOR  SUNNY     91  63  38 S16G22    30.08F HX  92
HILLSBORO      SUNNY     89  65  45 SW9G16    30.08F HX  90
CORSICANA      SUNNY     90  68  48 S14G21    30.09F HX  94
MEXIA          SUNNY     86  69  57 S10       30.08F HX  90
HEARNE         SUNNY     92  73  53 SE9G16    30.09F HX 100
CAMERON        SUNNY     88  69  52 S12G17    30.09S HX  92
TEMPLE         SUNNY     90  64  43 S15G22    30.09F HX  91
KILLEEN        MOSUNNY   90  64  43 SE15G23   30.09S HX  91
KILLEEN-SKYLRK SUNNY     90  64  43 S14G23    30.09S HX  91
FORT HOOD      SUNNY     91  65  41 SE12      30.08F HX  93
GATESVILLE     SUNNY     88  63  42 S13G18    30.10F
HAMILTON       SUNNY     89  61  39 S14G21    30.10F
LAMPASAS       SUNNY     88  66  47 S8        30.09F HX  90
$$

TXZ095>097-106>112-122>126-135>138-148>153-164>167-101800-
EAST TEXAS

CITY           SKY/WX    TMP DP  RH WIND       PRES   REMARKS
PARIS          SUNNY     88  68  51 S9        30.07S HX  91
SULPHUR SPRNGS MOSUNNY   91  64  41 SW12      30.09S HX  92
CLARKSVILLE    MOSUNNY   90  68  48 SW6       30.07S HX  94
MOUNT PLEASANT MOSUNNY   90  66  45 SW9       30.10S HX  92
GILMER         SUNNY     90  70  51 MISG        N/A  HX  95
MINEOLA        SUNNY     90  66  45 S7        30.09S HX  92
TYLER          SUNNY     88  69  53 SW10      30.09S HX  92
LONGVIEW       SUNNY     89  70  53 VRB5      30.08S HX  94
MARSHALL         N/A     91  72  53 SW7       30.11S HX  98
ATHENS         SUNNY     86  68  54 SW6       30.08F
PALESTINE      MOSUNNY   85  66  52 S8        30.11F
JACKSONVILLE   MOSUNNY   87  70  57 S6        30.12F HX  92
HENDERSON      SUNNY     90  68  48 S6        30.11S HX  93
NACOGDOCHES    MOSUNNY   88  72  58 SW9       30.11S HX  94
LUFKIN         MOSUNNY   92  72  51 VRB6      30.10F HX  99
$$

SUPPLEMENTAL OBSERVATIONS (CENTRAL)

CITY           SKY/WX    TMP DP  RH WIND       PRES   REMARKS
PALESTINE        N/A     88  72  58 S9          N/A  HX  94
MCGREGOR         N/A     90  64  43 S14         N/A  HX  91
TEMPLE           N/A     88  64  45 S15         N/A
$$

SUPPLEMENTAL OBSERVATIONS (WEST)

CITY           SKY/WX    TMP DP  RH WIND       PRES   REMARKS
MILLERS CREEK    N/A     91  63  38 SW15G22     N/A  HX  92
POSSUM KINGDOM   N/A     93  59  31 S10         N/A  HX  92
GRANBURY         N/A    N/A N/A N/A S13         N/A
IVIE RESERVOIR   N/A     90  55  31 S10         N/A
COLORADO BEND    N/A     88  63  42 S9          N/A
$$

SUPPLEMENTAL OBSERVATIONS (EAST)

CITY           SKY/WX    TMP DP  RH WIND       PRES   REMARKS
TEXARKANA        N/A     90  72  55 SE3         N/A  HX  96
LINDEN           N/A     91  68  46 SW5G13      N/A  HX  95
LUFKIN           N/A     90  81  74 MISG        N/A  HX 108
N SABINE NF      N/A     91  72  52 MISG        N/A  HX  98
$$

SUPPLEMENTAL OBSERVATIONS ARE A COLLECTION OF AUTOMATED INSTRUMENTS
THAT ARE MAINTAINED BY A VARIETY OF FEDERAL AND STATE AGENCIES.
CERTAIN ELEMENTS...SUCH AS HUMIDITY VALUES AND SUSTAINED WIND
SPEEDS...MAY BE APPROXIMATED.




USA.gov is the U.S. government's official web portal to all federal, state and local government web resources and services.